This demonstration page uses our WeatherBlox Daily Observations layout. Learn more.

Left ArrowRight Arrow

44.8408, -93.29828

Hourly Observations for March 22, 2020

Temp ( °F °C ) Dew Point ( °F °C ) Humidity (%) Winds ( mph kmh ) Pressure ( in mb ) Visibility ( mi km ) Precip ( " mm )
12:51 am 00:51 Cloudy 30 -1 25 -4 80 80 SE 15 24 30.42 1030 10 16 0.00 0.00
12:53 am 00:53 Cloudy 30 -1.1 25 -3.9 82 82 SSE 15 24 30.40 1029 10 16 0.00 0.00
1:06 am 01:06 Cloudy 30 -1.1 25 -3.9 82 82 SE 17 28 30.41 1030 10 16 0.00 0.00
1:35 am 01:35 Cloudy 30 -1.1 25 -3.9 82 82 SSE 16 26 30.41 1030 10 16 0.00 0.00
1:53 am 01:53 Cloudy 30 -1.1 25 -3.9 82 82 SSE 16 26 30.39 1029 10 16 0.00 0.00
2:53 am 02:53 Cloudy 31 -0.6 25 -3.9 79 79 SSE 21 33 30.36 1028 10 16 0.00 0.00
3:53 am 03:53 Cloudy 31 -0.6 24 -4.4 76 76 SSE 14 22 30.35 1028 10 16 0.00 0.00
4:53 am 04:53 Mostly Cloudy 31 -0.6 24 -4.4 76 76 SSE 14 22 30.33 1027 10 16 0.00 0.00
5:53 am 05:53 Cloudy 31 -0.6 24 -4.4 76 76 SSE 12 19 30.32 1027 10 16 0.00 0.00
6:53 am 06:53 Mostly Cloudy 31 -0.6 23 -5 72 72 SSE 14 22 30.33 1027 10 16 0.00 0.00
7:53 am 07:53 Mostly Cloudy 31 -0.6 23 -5 72 72 SSE 12 19 30.31 1026 10 16 0.00 0.00
8:53 am 08:53 Partly Cloudy 33 0.6 23 -5 66 66 SSE 13 20 30.30 1026 10 16 0.00 0.00
9:53 am 09:53 Cloudy 35 1.7 24 -4.4 64 64 SSE 18 30 30.29 1026 10 16 0.00 0.00
10:53 am 10:53 Mostly Cloudy 36 2.2 24 -4.4 62 62 SSE 20 31 30.28 1025 10 16 0.00 0.00
11:31 am 11:31 Cloudy 36 2.2 24 -4.4 62 62 SSE 20 31 30.27 1025 10 16 0.00 0.00
11:53 am 11:53 Cloudy 38 3.3 25 -3.9 60 60 SSE 23 37 30.26 1025 10 16 0.00 0.00
12:25 pm 12:25 Mostly Cloudy 39 3.9 26 -3.3 60 60 SSE 23 37 30.25 1024 10 16 0.00 0.00
12:53 pm 12:53 Mostly Cloudy 39 3.9 26 -3.3 60 60 SSE 25 41 30.23 1024 10 16 0.00 0.00
1:17 pm 13:17 Mostly Cloudy 40 4.4 26 -3.3 58 58 SSE 23 37 30.22 1023 10 16 0.00 0.00
1:27 pm 13:27 Mostly Cloudy 41 5 27 -2.8 57 57 SSE 22 35 30.22 1023 10 16 0.00 0.00
1:34 pm 13:34 Mostly Cloudy 40 4.4 27 -2.8 60 60 S 20 31 30.22 1023 10 16 0.00 0.00
1:53 pm 13:53 Mostly Cloudy 41 5 27 -2.8 57 57 S 22 35 30.21 1023 10 16 0.00 0.00
2:09 pm 14:09 Mostly Cloudy 41 5 27 -2.8 57 57 S 21 33 30.20 1023 10 16 0.00 0.00
2:53 pm 14:53 Mostly Cloudy 43 6.1 28 -2.2 56 56 S 20 31 30.17 1022 10 16 0.00 0.00
3:53 pm 15:53 Mostly Cloudy 42 5.6 28 -2.2 58 58 S 18 30 30.15 1021 10 16 0.00 0.00
4:53 pm 16:53 Mostly Cloudy 42 5.6 28 -2.2 58 58 S 15 24 30.14 1021 10 16 0.00 0.00
5:33 pm 17:33 Cloudy 41 5 29 -1.7 62 62 SSE 18 30 30.14 1021 10 16 0.00 0.00
5:53 pm 17:53 Cloudy 41 5 29 -1.7 62 62 S 15 24 30.13 1020 10 16 0.00 0.00
6:00 pm 18:00 Cloudy 41 5 29 -1.7 62 62 S 13 20 30.14 1021 10 16 0.00 0.00
6:50 pm 18:50 Cloudy 39 4 28 -2 65 65 S 17 28 30.15 1021 10 16 0.00 0.00
6:53 pm 18:53 Cloudy 40 4.4 29 -1.7 65 65 S 16 26 30.14 1021 10 16 0.00 0.00
7:53 pm 19:53 Cloudy 40 4.4 29 -1.7 65 65 S 9 15 30.14 1021 10 16 0.00 0.00
8:26 pm 20:26 Cloudy 39 3.9 29 -1.7 67 67 SSE 12 19 30.14 1021 10 16 0.00 0.00
8:49 pm 20:49 Cloudy 39 4 28 -2 65 65 SSE 10 17 30.14 1021 10 16 0.00 0.00
8:53 pm 20:53 Cloudy 39 3.9 29 -1.7 67 67 SSE 9 15 30.13 1020 10 16 0.00 0.00
9:53 pm 21:53 Cloudy 38 3.3 31 -0.6 76 76 S 10 17 30.13 1020 10 16 0.00 0.00
10:53 pm 22:53 Cloudy with Light Snow 36 2.2 29 -1.7 76 76 S 13 20 30.13 1020 8 13 0.00 0.00
11:53 pm 23:53 Cloudy with Light Snow 35 1.7 30 -1.1 82 82 S 7 11 30.14 1021 5 8 0.00 0.00

Powered by AerisWeather